Vorticity
15 14 13 13 13 13 14 13 13 12 11 11 10 9 8 9 12 15 19 20 18 15 12 9 8 6 6 5 4 4 4 5 5 7 8 13 19 25 30 30 27 24 20 17 14 12 11 12 14 16 17 14 11 7 6 7 8 11 14 13 8 2 -2 -1 1 3 4 5 6 6 6 6 6 6 7 8 9 11 12 13 14 14 14 12 10 8
15 14 14 14 13 13 13 12 12 11 10 10 9 9 8 8 10 12 16 18 18 17 15 12 10 8 7 6 6 5 5 5 6 6 7 9 12 17 22 26 27 25 21 18 16 14 15 16 16 17 17 13 9 6 4 6 9 12 14 12 7 1 -1 1 3 5 6 6 6 5 3 2 1 1 2 4 5 7 10 12 13 15 15 14 13 12
15 14 14 13 13 12 11 11 11 10 9 9 8 8 7 7 8 10 12 15 16 17 17 15 13 11 10 9 8 7 7 7 7 8 8 9 9 11 13 17 21 23 22 20 17 16 16 16 16 16 15 11 7 5 4 7 9 12 13 11 7 5 4 6 7 9 9 9 8 6 2 -0 -1 -1 0 1 3 5 7 9 11 13 14 14 14 13
14 14 13 12 11 11 10 9 9 9 9 8 8 7 7 7 7 8 9 11 13 14 16 16 15 14 13 12 11 10 9 9 9 9 10 10 9 9 10 11 13 15 17 17 16 15 14 14 14 13 11 7 4 2 2 5 7 8 9 8 7 7 8 9 9 10 11 10 9 7 3 1 1 1 2 3 4 5 6 8 9 10 11 12 12 12
13 12 11 10 10 9 9 8 8 8 8 8 8 7 7 7 7 7 7 8 9 10 12 13 14 14 14 13 12 12 11 11 11 11 11 11 10 10 9 10 10 11 11 12 12 11 11 10 9 8 6 3 1 0 1 3 4 5 6 6 7 7 8 9 9 10 10 10 9 8 6 5 5 5 5 5 5 6 7 8 8 9 10 10 10 10
12 11 9 9 8 8 8 8 8 8 8 8 8 7 7 7 7 7 6 6 7 7 8 9 10 11 12 12 12 12 12 12 12 11 11 11 10 10 10 10 10 10 10 10 10 9 9 8 7 6 4 3 2 2 3 4 5 6 6 7 7 8 8 8 9 9 9 9 9 9 8 8 8 7 7 7 7 7 8 9 9 10 10 10 10 10
10 9 8 8 8 7 7 8 8 8 8 8 8 7 7 7 7 7 7 6 6 6 6 7 7 8 9 9 10 10 11 11 11 11 11 10 10 9 9 10 10 10 11 11 11 10 10 10 9 9 8 8 7 8 8 8 9 9 9 9 9 9 9 9 9 9 9 9 9 9 9 9 9 9 8 8 8 9 9 10 11 11 11 11 11 10
8 8 7 7 7 8 8 8 8 8 8 8 8 7 7 7 7 7 7 7 7 7 6 6 7 7 7 7 7 8 8 9 9 10 10 9 9 8 8 8 8 8 9 10 11 11 12 12 12 12 13 13 13 13 13 13 13 12 12 12 12 11 11 11 11 11 11 11 11 11 11 11 11 10 10 9 9 10 10 11 12 12 12 12 12 12
7 7 7 7 7 8 8 8 8 8 8 8 8 7 7 7 7 7 7 7 7 7 7 7 7 7 7 7 7 7 7 7 7 8 8 8 8 8 7 7 6 6 6 7 7 8 9 9 10 11 12 12 12 13 13 13 13 13 12 12 12 12 12 12 12 12 12 12 12 12 12 12 12 11 11 11 11 10 11 11 12 12 13 13 13 13
7 7 7 7 8 8 8 8 8 8 8 8 8 8 7 7 7 7 7 7 7 7 7 7 7 7 7 7 7 7 7 7 7 7 7 7 7 7 7 7 7 6 6 5 5 5 5 5 6 6 7 7 7 8 8 8 8 8 8 8 8 9 9 9 9 10 10 10 10 10 10 10 11 11 11 10 10 10 10 10 11 11 12 13 13 14
7 7 7 8 8 8 8 8 8 7 7 8 8 8 8 8 7 7 7 7 7 7 7 7 7 6 6 7 7 7 7 7 7 7 7 7 7 7 7 7 7 7 6 6 6 6 5 5 5 5 5 5 5 5 5 5 5 5 5 6 6 6 6 6 7 7 7 7 7 7 7 8 8 8 8 9 9 9 9 9 9 10 10 10 11 12
7 7 8 8 8 8 8 8 8 8 8 8 8 8 8 8 7 7 7 7 6 6 6 7 7 7 6 6 6 6 6 6 6 6 6 6 6 6 7 7 7 7 7 7 7 7 6 6 6 6 5 5 5 5 5 5 5 5 5 6 6 6 6 6 6 6 6 6 6 6 6 7 7 7 7 7 7 8 8 8 8 8 8 8 9 9
7 7 8 8 8 8 8 8 8 8 8 8 8 7 7 7 7 7 7 7 6 6 6 6 6 7 7 6 6 6 6 6 6 6 6 6 6 6 6 6 6 6 6 7 7 7 7 7 7 7 6 6 6 6 6 6 6 6 6 6 6 6 7 7 7 7 7 7 7 7 7 8 8 8 8 8 8 8 8 8 8 8 8 8 8 7
7 8 8 8 8 8 8 8 8 8 8 8 8 7 7 6 6 7 7 7 6 6 6 6 6 6 6 6 6 6 6 6 6 6 6 6 6 5 5 5 6 6 6 6 7 7 7 7 7 7 7 7 7 7 7 7 7 7 7 7 7 7 7 8 8 8 8 8 8 9 9 9 9 9 9 9 9 9 9 9 9 9 9 9 8 8
7 8 8 8 8 8 8 8 8 8 8 7 7 7 7 7 7 7 7 6 6 6 6 6 6 6 6 6 6 6 6 6 6 6 6 6 6 6 6 6 6 7 6 7 7 7 7 7 7 7 7 7 7 7 8 8 8 8 8 8 8 8 8 8 8 9 9 9 9 9 9 9 9 10 10 10 10 10 10 10 10 10 10 10 10 9
7 8 8 8 8 8 8 8 8 8 8 7 7 7 7 7 7 7 7 6 6 6 6 5 5 5 5 5 5 5 5 6 6 6 6 6 6 6 6 7 7 7 7 7 7 7 7 7 7 7 7 7 8 8 8 8 8 8 8 8 8 8 8 8 9 9 9 9 9 9 9 9 9 9 9 9 9 9 9 9 10 10 10 10 10 10
8 8 8 8 8 8 8 8 8 8 8 8 8 8 7 7 7 7 7 7 6 6 6 5 5 5 5 5 5 5 4 5 6 6 6 6 6 6 7 7 7 7 7 7 8 7 7 7 7 7 7 7 7 7 7 7 7 7 7 7 8 8 8 8 8 8 8 8 8 8 8 8 8 8 8 8 8 8 8 9 9 9 9 9 9 9
8 9 9 9 9 9 8 8 8 8 8 8 8 8 8 7 7 7 7 7 7 6 6 5 5 5 5 5 5 5 4 5 6 6 6 6 6 7 7 7 7 8 7 8 8 8 8 8 7 7 7 7 7 7 7 6 6 6 6 6 6 6 6 6 6 6 6 6 6 6 6 6 7 7 7 7 8 8 8 8 8 9 9 9 9 9
9 9 9 9 9 9 9 9 9 9 9 8 8 8 8 8 8 8 7 7 7 6 6 5 5 5 4 5 5 5 5 5 6 6 6 7 7 7 7 7 8 8 8 8 8 8 8 8 8 8 8 7 7 7 6 6 6 6 6 5 5 5 5 5 4 4 4 5 5 5 5 5 6 6 7 7 7 8 8 9 9 9 10 10 10 10
9 10 10 9 9 9 9 9 9 9 9 8 8 8 8 8 8 8 8 7 7 6 6 5 5 5 5 5 5 5 5 5 6 7 7 7 7 7 7 7 8 8 8 8 8 8 8 8 8 8 8 8 7 7 7 7 6 6 6 5 5 5 4 4 4 4 4 4 4 5 5 6 6 7 8 8 9 9 10 10 11 11 11 12 12 12
10 10 10 10 10 10 10 10 9 9 9 8 9 9 8 8 8 8 8 8 7 7 6 6 5 5 5 5 5 5 5 6 6 7 7 7 8 7 7 8 8 8 8 8 8 8 8 8 8 8 7 7 7 7 7 7 6 6 6 6 5 5 5 5 4 4 5 5 5 6 7 7 8 9 10 11 11 12 13 13 13 13 14 14 14 14
10 10 10 10 10 10 10 10 9 9 9 9 9 9 9 8 8 8 8 8 8 7 7 6 5 5 5 5 5 5 6 6 6 7 7 8 8 8 7 7 8 8 7 7 8 8 8 7 7 7 7 7 6 6 6 6 6 6 5 5 5 5 5 4 4 4 5 5 6 7 8 9 10 11 12 13 13 14 15 15 16 16 16 16 16 16
10 10 10 10 10 10 10 10 10 9 9 10 9 9 9 9 9 9 8 8 8 7 7 6 6 6 6 6 6 6 6 6 6 7 7 7 8 7 7 7 7 7 7 7 7 7 7 7 7 7 6 6 6 6 6 6 5 5 5 5 4 4 4 4 4 4 4 5 6 7 8 9 10 11 13 13 14 15 16 16 17 17 17 18 18 18
10 10 10 10 10 10 10 10 10 10 10 10 10 10 9 9 9 9 9 8 8 8 7 7 7 7 7 6 6 6 6 6 6 7 7 7 7 7 6 7 7 7 6 6 6 6 6 6 6 6 6 6 6 6 6 6 5 5 5 4 4 4 4 4 4 4 5 5 6 8 9 10 11 13 14 14 15 16 16 16 17 17 18 18 19 19
10 10 10 10 10 10 10 10 10 10 10 10 10 10 10 10 10 10 9 9 9 8 8 8 8 7 7 7 7 7 7 6 7 7 7 7 7 7 6 6 6 6 6 5 5 5 5 6 6 6 6 6 6 6 6 6 6 6 5 5 5 5 5 5 5 6 6 8 9 10 11 12 13 14 15 15 15 16 16 16 16 17 17 18 19 19
9 9 9 9 9 10 10 10 10 10 10 10 10 10 10 10 10 10 10 10 9 9 8 8 8 8 7 7 7 7 7 7 7 7 8 7 7 7 7 6 6 6 6 5 5 5 6 6 6 6 6 6 6 6 6 6 6 6 6 6 6 7 7 7 8 8 9 10 12 13 14 15 15 15 16 16 16 16 16 16 16 16 17 17 18 19
9 9 9 9 9 10 10 10 10 10 10 10 10 10 9 10 10 10 10 9 9 9 8 8 8 8 8 8 8 8 7 7 8 8 8 8 8 7 7 7 7 7 6 6 6 6 6 6 6 6 6 7 7 7 7 7 7 7 7 8 8 8 9 9 10 11 12 13 14 15 16 16 16 16 16 16 16 16 16 15 16 16 16 17 17 18
9 9 9 9 9 10 10 10 10 10 10 10 9 9 9 9 9 9 9 8 8 8 8 8 8 8 8 8 8 8 7 8 8 8 8 8 8 8 7 7 7 7 7 6 6 6 7 7 7 6 6 7 7 7 7 7 8 8 9 9 10 10 11 12 13 14 14 15 16 16 16 16 16 16 16 16 16 16 16 16 16 16 16 16 16 17
9 9 9 9 9 10 10 10 10 10 10 9 9 8 8 8 8 7 8 7 8 8 8 8 8 8 8 8 8 8 8 8 8 7 8 9 9 8 7 7 8 8 7 7 7 7 8 7 7 6 6 6 7 7 8 8 9 10 11 11 12 12 13 14 14 15 16 16 16 16 16 16 16 16 16 16 16 16 16 16 16 15 15 16 16 17
9 9 9 9 10 10 10 10 10 10 9 9 8 8 7 7 7 7 7 7 8 8 8 8 8 8 8 8 8 8 8 8 8 7 7 9 9 8 7 8 8 8 8 7 7 8 8 8 7 7 6 7 7 8 8 9 10 11 12 13 14 14 15 15 15 16 16 16 16 16 16 16 17 17 17 17 17 16 16 16 15 15 15 15 15 16
9 9 9 9 9 10 10 10 10 9 9 9 8 7 7 6 6 6 7 7 8 8 8 8 8 8 8 7 7 8 8 8 7 7 8 9 8 7 7 8 8 8 8 8 8 8 8 8 8 7 7 7 8 9 10 11 12 13 14 14 15 15 15 15 16 16 16 16 16 16 16 16 17 17 17 17 16 16 15 15 14 14 14 14 15 16
9 9 9 9 9 9 10 10 9 9 9 8 8 7 6 6 6 6 6 7 8 8 8 8 8 8 8 7 7 7 7 7 7 7 8 9 8 8 8 8 8 8 8 9 9 8 7 7 7 7 8 9 9 10 12 13 14 14 15 15 15 15 15 16 16 16 16 16 16 16 16 16 17 17 17 16 15 14 14 14 13 13 14 14 16 17
9 9 9 9 9 9 9 9 9 9 8 8 7 7 6 6 6 6 6 7 7 8 8 8 8 8 8 8 8 8 8 7 7 7 7 9 8 8 8 9 9 8 8 9 9 9 8 7 7 8 9 10 11 12 13 14 15 15 15 15 15 15 16 16 17 17 17 17 16 16 16 16 16 16 15 14 13 13 12 13 13 13 14 15 17 18
10 10 10 9 10 10 10 9 9 9 8 7 7 6 6 6 6 6 6 7 7 7 8 8 8 8 8 8 8 8 9 8 8 8 8 9 9 8 8 9 9 9 9 9 9 9 9 9 9 9 10 11 12 13 14 15 15 15 14 15 15 15 16 18 18 19 18 17 16 16 16 16 15 15 14 13 12 12 12 12 13 14 15 17 18 19
10 10 10 10 10 10 10 9 9 9 8 7 7 7 6 6 6 7 7 7 7 7 7 8 8 8 8 8 8 8 9 8 8 9 9 10 10 9 9 10 10 9 9 9 9 9 9 10 10 10 11 12 13 15 15 15 15 14 14 15 16 17 18 19 20 20 18 17 16 15 14 14 14 13 12 11 11 11 12 13 14 16 17 19 20 21
11 11 10 10 10 10 10 10 9 9 8 8 7 7 7 7 7 7 7 7 7 7 7 8 8 9 9 9 9 9 9 8 9 9 10 10 10 10 10 10 9 9 9 9 9 9 9 10 11 11 12 13 13 14 15 15 15 15 15 16 17 19 21 22 22 21 19 16 15 13 13 13 13 12 11 10 10 11 12 13 15 17 19 20 22 23
11 11 11 11 11 10 10 10 9 9 8 8 7 7 7 7 7 7 7 7 7 8 8 8 8 8 9 10 10 10 9 9 9 10 10 10 11 11 11 10 10 10 10 9 9 9 10 11 11 12 13 13 13 13 14 14 15 16 16 18 19 21 23 24 23 21 18 15 13 12 12 12 11 11 10 10 10 11 12 15 16 18 20 22 23 23
11 11 11 11 11 11 10 10 9 9 8 8 8 8 7 7 7 7 7 7 8 8 8 8 8 9 9 9 10 10 10 10 10 11 11 11 11 11 11 10 10 10 10 9 9 9 10 11 12 12 13 13 13 13 14 14 15 17 18 20 22 24 25 25 23 21 18 14 12 11 11 11 10 10 9 9 9 10 12 15 18 20 22 23 24 24
11 11 10 11 11 11 10 10 9 9 8 8 7 7 7 7 7 7 7 7 8 8 8 8 8 9 9 9 10 10 10 11 11 11 11 11 11 11 11 10 9 9 9 10 10 10 11 12 12 12 11 12 13 14 15 16 17 18 19 21 24 26 27 25 23 20 16 13 11 11 10 10 9 9 8 8 8 9 12 15 18 21 22 23 24 25
10 10 10 10 10 10 10 9 9 8 8 7 7 7 7 7 7 7 7 7 7 8 8 8 9 9 9 10 10 10 10 11 11 11 11 11 11 10 10 10 9 9 9 10 11 12 12 13 13 12 12 12 14 15 16 18 19 20 20 22 24 26 25 24 22 19 15 13 11 10 10 10 9 8 7 7 7 9 12 15 18 21 22 23 23 24
10 10 10 10 10 10 9 9 8 7 7 7 7 7 7 7 7 7 7 8 8 8 8 9 9 10 10 10 10 10 10 11 11 11 11 11 10 10 10 10 9 9 9 11 12 13 13 13 13 12 13 14 15 17 18 19 20 21 22 24 24 24 23 22 19 17 14 12 11 10 10 10 9 8 7 6 7 9 12 15 18 20 22 23 24 24
11 10 10 10 10 9 9 8 7 7 7 7 7 7 7 7 7 7 7 8 8 9 9 9 9 10 10 10 10 11 11 11 11 11 11 11 10 10 10 10 10 10 10 11 12 13 13 13 12 13 14 15 17 19 20 21 21 22 24 24 24 22 22 20 18 15 13 12 11 11 11 11 10 9 7 6 7 9 12 15 18 20 21 21 22 22
11 10 10 10 9 9 8 7 7 7 7 7 7 7 7 7 7 7 7 8 8 9 9 10 10 9 9 9 9 10 11 11 11 11 10 10 10 10 10 10 10 11 11 12 13 13 12 12 12 13 15 17 19 20 21 21 21 22 24 23 22 20 19 18 16 14 12 11 11 11 11 11 10 9 7 6 7 9 12 15 18 20 20 19 19 19
10 10 10 10 9 8 8 7 7 7 7 7 7 7 7 7 7 7 8 9 9 9 9 9 9 9 10 10 9 9 9 10 11 11 10 10 10 10 10 11 11 12 12 13 12 12 12 12 13 15 17 19 20 22 22 22 21 22 22 22 22 20 18 15 13 12 12 11 11 11 11 11 10 8 7 7 8 10 13 16 18 19 19 18 17 16
10 10 10 10 9 9 8 7 7 6 6 6 6 6 7 7 8 8 9 9 9 9 9 9 9 9 9 9 9 9 8 9 10 10 11 11 11 11 11 12 12 13 13 13 12 11 11 13 14 16 18 20 22 22 22 21 21 21 21 21 21 20 17 15 13 12 11 11 11 11 12 11 10 8 7 7 9 11 14 16 17 18 17 17 16 15
11 11 10 10 9 8 7 6 6 6 6 6 6 6 7 8 8 9 9 9 9 9 9 9 9 9 9 9 9 9 9 8 9 9 11 11 11 12 12 13 13 13 13 12 11 11 12 14 15 17 19 21 22 22 22 21 21 21 21 20 20 18 16 14 13 11 11 11 11 11 12 11 10 9 8 9 10 12 14 16 17 17 16 15 15 14
11 11 10 9 9 8 7 6 5 5 5 6 6 6 7 8 9 9 10 9 9 10 10 10 10 10 10 9 9 9 9 8 9 9 10 11 12 12 13 13 13 13 12 11 11 11 13 16 18 19 20 20 20 20 21 21 22 21 20 19 18 17 15 13 12 11 11 11 12 12 11 11 10 9 9 11 13 14 15 17 17 17 16 15 14 14
11 10 9 9 8 7 6 5 5 4 5 5 6 6 7 8 8 8 9 9 9 10 10 11 11 12 11 10 10 10 9 9 9 9 10 11 12 13 13 13 13 12 11 10 10 12 15 17 19 20 20 20 19 19 19 20 22 22 21 19 18 16 15 13 12 12 12 13 13 12 12 11 10 10 11 13 15 16 17 17 17 17 16 15 14 14
11 10 9 8 7 6 5 4 4 4 4 4 5 6 7 7 7 7 7 8 9 10 12 12 13 12 12 11 10 10 10 10 10 10 11 11 12 13 13 13 13 12 10 10 11 13 17 19 20 21 20 19 19 19 19 21 22 22 21 19 18 16 15 14 13 12 12 12 12 12 12 11 11 12 13 15 16 18 19 18 18 17 16 15 15 14
10 10 9 8 7 5 4 3 3 3 3 4 4 5 5 6 6 7 8 9 10 11 12 13 13 13 12 11 10 9 9 10 10 11 12 12 13 13 13 13 12 11 10 10 12 15 18 20 20 21 20 20 20 20 20 21 22 21 21 19 18 16 14 13 12 12 11 11 11 11 12 13 14 15 16 17 18 19 20 20 19 17 16 15 15 15
10 9 8 7 6 5 4 3 2 2 3 3 3 4 4 6 7 8 9 10 10 11 12 13 13 12 11 9 9 9 9 10 11 12 12 12 13 13 13 12 11 10 10 11 14 16 19 19 19 19 19 20 21 22 22 21 21 20 20 19 17 15 13 12 10 10 10 11 11 12 14 15 17 18 18 19 19 20 21 21 20 18 16 15 15 15
Height
5690 5689 5687 5686 5685 5684 5683 5682 5681 5679 5677 5676 5674 5672 5670 5668 5666 5665 5663 5661 5659 5657 5656 5655 5653 5652 5650 5649 5648 5646 5645 5643 5642 5641 5639 5637 5636 5633 5632 5630 5629 5629 5629 5629 5629 5630 5631 5632 5633 5634 5636 5637 5638 5639 5640 5641 5642 5643 5644 5645 5646 5647 5647 5648 5648 5649 5650 5651 5651 5652 5652 5653 5654 5654 5655 5655 5656 5656 5656 5656 5657 5657 5658 5658 5659 5659
5687 5686 5685 5684 5683 5682 5681 5680 5678 5677 5675 5674 5672 5670 5668 5667 5665 5663 5661 5660 5658 5656 5655 5653 5652 5651 5649 5648 5647 5645 5644 5643 5641 5640 5639 5637 5636 5634 5633 5632 5631 5630 5629 5629 5629 5630 5630 5631 5632 5633 5634 5636 5636 5637 5638 5639 5640 5641 5642 5643 5644 5644 5645 5646 5646 5646 5647 5648 5648 5649 5650 5650 5651 5651 5651 5652 5652 5653 5653 5654 5654 5654 5654 5655 5655 5656
5685 5684 5683 5681 5681 5679 5678 5677 5676 5675 5673 5672 5670 5669 5667 5665 5663 5662 5660 5658 5657 5655 5654 5652 5651 5649 5648 5647 5646 5644 5643 5642 5641 5640 5638 5637 5636 5635 5633 5632 5631 5631 5630 5630 5630 5630 5630 5631 5632 5633 5634 5635 5636 5636 5637 5638 5639 5639 5640 5641 5641 5642 5642 5643 5643 5644 5645 5645 5646 5646 5647 5647 5647 5648 5648 5649 5649 5650 5650 5650 5651 5651 5651 5651 5651 5652
5683 5682 5681 5679 5678 5677 5676 5675 5674 5673 5671 5670 5668 5667 5665 5664 5662 5661 5659 5657 5656 5654 5653 5651 5650 5648 5647 5646 5644 5643 5642 5641 5640 5639 5638 5637 5636 5635 5634 5633 5632 5631 5631 5631 5631 5631 5631 5631 5632 5632 5633 5634 5635 5636 5636 5636 5637 5638 5638 5639 5639 5640 5640 5641 5641 5641 5642 5642 5643 5643 5644 5644 5644 5645 5645 5646 5646 5646 5646 5647 5647 5647 5647 5648 5648 5648
5681 5680 5678 5677 5676 5675 5674 5673 5672 5671 5669 5668 5666 5665 5663 5662 5661 5659 5657 5656 5655 5653 5651 5650 5649 5647 5646 5644 5643 5642 5641 5640 5639 5638 5637 5636 5635 5634 5633 5633 5632 5632 5631 5631 5631 5631 5631 5631 5632 5632 5633 5633 5634 5634 5634 5635 5635 5636 5636 5636 5637 5637 5637 5638 5638 5639 5639 5640 5640 5640 5640 5641 5641 5641 5641 5642 5642 5642 5643 5643 5643 5644 5644 5644 5644 5644
5679 5677 5676 5675 5674 5673 5672 5671 5670 5668 5667 5666 5664 5663 5661 5660 5659 5657 5656 5655 5653 5652 5650 5649 5648 5646 5645 5644 5642 5641 5640 5639 5638 5637 5636 5635 5635 5634 5633 5632 5632 5631 5631 5631 5631 5631 5631 5631 5632 5632 5632 5632 5632 5632 5633 5633 5633 5634 5634 5634 5634 5635 5635 5635 5636 5636 5636 5636 5637 5637 5637 5637 5637 5638 5638 5638 5638 5639 5639 5639 5639 5640 5640 5640 5641 5641
5676 5676 5674 5673 5672 5671 5669 5668 5667 5666 5665 5663 5662 5661 5660 5658 5657 5656 5655 5653 5652 5651 5649 5648 5646 5645 5644 5643 5641 5640 5639 5638 5637 5636 5636 5635 5634 5633 5632 5632 5631 5631 5631 5631 5631 5631 5631 5631 5631 5631 5631 5631 5631 5631 5631 5631 5631 5631 5631 5631 5632 5632 5632 5632 5632 5633 5633 5633 5634 5634 5634 5634 5634 5634 5634 5634 5635 5635 5635 5635 5635 5636 5636 5636 5636 5636
5674 5673 5672 5671 5670 5668 5667 5666 5665 5663 5662 5661 5660 5659 5658 5657 5656 5654 5653 5652 5650 5649 5648 5646 5645 5644 5643 5642 5641 5640 5639 5638 5637 5636 5635 5634 5634 5633 5632 5631 5631 5630 5630 5630 5630 5629 5629 5630 5630 5630 5630 5630 5630 5630 5629 5629 5629 5629 5629 5629 5629 5629 5629 5630 5630 5630 5630 5630 5631 5631 5630 5630 5630 5630 5630 5631 5631 5631 5631 5631 5631 5631 5632 5632 5632 5632
5672 5671 5670 5669 5668 5666 5665 5664 5663 5661 5660 5659 5658 5657 5656 5655 5654 5653 5651 5650 5649 5648 5646 5645 5644 5643 5642 5641 5640 5639 5638 5637 5636 5635 5634 5634 5633 5632 5631 5631 5630 5629 5629 5629 5628 5628 5628 5628 5628 5627 5627 5627 5627 5627 5627 5627 5627 5627 5627 5627 5627 5627 5627 5627 5627 5627 5627 5627 5627 5627 5627 5627 5626 5626 5626 5626 5627 5627 5627 5627 5627 5627 5627 5628 5628 5628
5670 5669 5668 5667 5666 5665 5663 5662 5661 5660 5659 5658 5657 5656 5655 5654 5653 5651 5651 5649 5648 5646 5645 5644 5643 5641 5641 5639 5638 5637 5636 5636 5635 5634 5633 5632 5632 5631 5630 5630 5629 5628 5628 5627 5627 5626 5626 5626 5625 5625 5625 5625 5624 5624 5624 5624 5624 5624 5624 5624 5624 5624 5624 5624 5624 5624 5624 5624 5623 5623 5623 5623 5623 5623 5623 5623 5623 5623 5623 5623 5623 5623 5623 5624 5624 5624
5668 5667 5666 5665 5663 5662 5661 5660 5659 5658 5657 5656 5655 5654 5653 5652 5651 5650 5649 5648 5646 5645 5644 5642 5641 5640 5639 5638 5637 5636 5635 5634 5633 5632 5631 5631 5630 5629 5629 5628 5627 5627 5626 5626 5625 5625 5624 5624 5623 5623 5622 5622 5621 5621 5621 5621 5621 5621 5621 5621 5621 5621 5621 5621 5621 5621 5620 5620 5620 5620 5620 5620 5620 5620 5620 5620 5620 5619 5619 5619 5619 5619 5619 5619 5620 5620
5666 5665 5664 5663 5662 5661 5660 5658 5657 5656 5655 5654 5653 5652 5651 5650 5649 5648 5647 5646 5645 5643 5642 5641 5640 5638 5637 5636 5635 5634 5633 5632 5631 5631 5630 5629 5628 5627 5627 5626 5626 5625 5625 5624 5624 5623 5623 5622 5621 5621 5620 5620 5620 5619 5619 5619 5619 5619 5619 5618 5618 5618 5618 5618 5618 5617 5617 5617 5617 5616 5616 5616 5616 5616 5616 5616 5616 5616 5616 5616 5616 5616 5616 5616 5615 5615
5664 5663 5662 5661 5660 5659 5658 5656 5656 5655 5654 5652 5651 5650 5649 5648 5647 5646 5645 5644 5643 5641 5640 5639 5638 5637 5636 5635 5633 5632 5631 5631 5630 5629 5628 5627 5626 5626 5625 5624 5624 5623 5623 5622 5622 5621 5621 5621 5620 5619 5619 5618 5618 5617 5617 5617 5616 5616 5616 5616 5616 5615 5615 5615 5615 5614 5614 5614 5614 5613 5613 5613 5613 5613 5613 5612 5612 5612 5612 5612 5612 5612 5611 5611 5611 5611
5661 5661 5659 5658 5657 5656 5656 5654 5653 5652 5651 5650 5649 5648 5647 5646 5645 5644 5643 5641 5641 5639 5638 5637 5636 5635 5634 5633 5631 5631 5629 5629 5628 5627 5626 5625 5624 5624 5623 5622 5621 5621 5620 5620 5620 5619 5619 5618 5617 5617 5616 5616 5615 5615 5614 5614 5614 5613 5613 5613 5613 5612 5612 5611 5611 5611 5611 5610 5610 5610 5610 5609 5609 5609 5609 5609 5608 5608 5608 5608 5608 5607 5607 5607 5607 5607
5659 5658 5657 5656 5655 5654 5653 5652 5651 5650 5649 5648 5647 5646 5645 5644 5643 5641 5641 5639 5638 5637 5636 5635 5634 5633 5631 5631 5629 5628 5627 5626 5626 5625 5624 5623 5622 5621 5621 5620 5619 5618 5618 5617 5617 5616 5616 5615 5615 5614 5613 5613 5612 5612 5611 5611 5611 5610 5610 5610 5609 5609 5609 5608 5608 5607 5607 5606 5606 5606 5606 5605 5605 5605 5604 5604 5604 5604 5603 5603 5603 5603 5602 5602 5602 5602
5656 5656 5654 5653 5652 5652 5651 5650 5649 5647 5647 5646 5644 5643 5642 5641 5640 5639 5638 5637 5636 5635 5633 5632 5631 5630 5629 5628 5627 5626 5625 5624 5623 5622 5621 5621 5620 5619 5618 5617 5616 5616 5615 5615 5614 5614 5613 5612 5611 5611 5610 5610 5609 5609 5608 5607 5607 5606 5606 5606 5606 5605 5605 5605 5604 5604 5603 5603 5602 5602 5601 5601 5601 5600 5600 5600 5599 5599 5598 5598 5598 5597 5597 5597 5597 5597
5654 5653 5652 5651 5650 5649 5649 5648 5646 5645 5644 5643 5642 5641 5640 5639 5638 5637 5636 5635 5633 5632 5631 5630 5629 5628 5627 5626 5625 5624 5623 5621 5621 5620 5619 5618 5617 5616 5616 5615 5614 5613 5612 5612 5611 5611 5610 5609 5609 5608 5607 5607 5606 5606 5605 5604 5604 5603 5603 5602 5602 5601 5601 5601 5600 5600 5599 5599 5598 5598 5597 5596 5596 5596 5595 5595 5594 5594 5593 5593 5592 5592 5592 5591 5591 5591
5652 5651 5650 5649 5648 5647 5646 5645 5644 5643 5642 5641 5640 5638 5637 5636 5635 5634 5633 5632 5631 5630 5629 5628 5626 5625 5624 5623 5622 5621 5621 5619 5618 5617 5616 5615 5614 5613 5613 5612 5611 5610 5610 5609 5608 5608 5607 5606 5606 5605 5604 5604 5603 5602 5601 5601 5600 5600 5599 5599 5598 5597 5597 5596 5596 5595 5595 5594 5593 5593 5592 5592 5591 5591 5590 5589 5589 5588 5588 5587 5587 5587 5586 5586 5586 5586
5650 5649 5647 5646 5646 5645 5644 5643 5641 5640 5639 5638 5637 5636 5635 5634 5633 5632 5631 5630 5629 5627 5626 5625 5624 5623 5622 5621 5620 5619 5618 5617 5616 5615 5614 5613 5611 5611 5610 5609 5608 5607 5606 5606 5605 5605 5604 5603 5602 5602 5601 5601 5600 5599 5598 5597 5597 5596 5596 5595 5594 5594 5593 5592 5591 5591 5590 5589 5589 5588 5587 5586 5586 5585 5585 5584 5584 5583 5582 5582 5581 5581 5581 5580 5580 5580
5647 5646 5645 5644 5643 5642 5641 5640 5639 5638 5636 5635 5634 5633 5632 5631 5630 5629 5628 5627 5626 5625 5624 5623 5621 5621 5620 5619 5618 5617 5616 5614 5613 5612 5611 5610 5609 5608 5607 5606 5605 5604 5604 5603 5602 5601 5601 5600 5599 5599 5598 5597 5596 5595 5594 5594 5593 5592 5591 5591 5590 5589 5589 5588 5587 5586 5585 5584 5584 5583 5582 5581 5581 5580 5579 5579 5578 5577 5577 5576 5576 5576 5575 5575 5574 5574
5644 5643 5642 5641 5641 5639 5638 5637 5636 5635 5634 5632 5631 5631 5630 5629 5627 5626 5626 5625 5624 5622 5621 5620 5619 5618 5617 5616 5616 5614 5613 5612 5611 5610 5609 5607 5606 5605 5604 5603 5602 5601 5601 5600 5599 5598 5597 5596 5596 5595 5594 5593 5592 5591 5590 5590 5589 5588 5587 5586 5586 5585 5584 5583 5582 5581 5580 5579 5578 5577 5576 5576 5575 5574 5573 5573 5572 5571 5571 5570 5570 5569 5569 5569 5568 5568
5641 5641 5639 5638 5637 5636 5636 5634 5633 5632 5631 5630 5629 5628 5627 5626 5625 5624 5623 5622 5621 5620 5619 5618 5616 5616 5615 5614 5613 5612 5611 5610 5608 5607 5606 5605 5603 5602 5601 5601 5599 5598 5597 5597 5596 5595 5594 5593 5592 5591 5590 5589 5587 5586 5586 5585 5584 5583 5582 5581 5581 5580 5579 5577 5576 5576 5575 5573 5572 5571 5571 5570 5569 5568 5567 5566 5566 5565 5565 5564 5564 5563 5563 5562 5562 5561
5638 5637 5636 5635 5634 5633 5632 5631 5630 5629 5628 5627 5626 5625 5624 5623 5622 5621 5620 5619 5618 5617 5616 5615 5614 5612 5612 5611 5610 5609 5608 5607 5606 5604 5603 5601 5600 5599 5599 5597 5596 5595 5594 5593 5592 5591 5590 5589 5588 5587 5586 5584 5583 5582 5581 5580 5579 5578 5577 5576 5575 5574 5573 5572 5571 5570 5569 5567 5566 5566 5565 5564 5563 5562 5561 5560 5560 5559 5558 5558 5557 5557 5556 5556 5556 5555
5636 5635 5633 5632 5631 5630 5629 5628 5627 5626 5625 5624 5623 5622 5621 5620 5619 5618 5617 5616 5615 5614 5612 5611 5611 5610 5609 5608 5607 5606 5605 5604 5603 5602 5600 5599 5597 5596 5595 5594 5593 5592 5591 5590 5589 5588 5586 5586 5584 5583 5582 5580 5579 5578 5577 5576 5575 5574 5572 5571 5570 5569 5568 5566 5565 5564 5563 5562 5561 5560 5558 5557 5556 5556 5555 5554 5553 5553 5552 5551 5551 5551 5550 5550 5549 5549
5633 5632 5631 5630 5628 5627 5626 5625 5624 5623 5622 5621 5620 5619 5617 5616 5616 5615 5614 5613 5612 5611 5610 5609 5608 5606 5606 5605 5604 5603 5602 5601 5600 5599 5597 5596 5594 5593 5592 5591 5589 5588 5587 5586 5585 5584 5582 5581 5580 5579 5578 5576 5575 5574 5572 5571 5570 5569 5568 5566 5565 5564 5563 5561 5560 5559 5557 5556 5555 5554 5553 5551 5551 5550 5549 5548 5547 5546 5546 5545 5545 5544 5544 5543 5543 5543
5631 5629 5628 5627 5626 5625 5624 5623 5621 5621 5620 5618 5617 5616 5615 5614 5612 5611 5611 5610 5609 5608 5607 5606 5604 5603 5602 5601 5601 5600 5599 5598 5597 5595 5594 5592 5591 5589 5588 5587 5586 5584 5583 5581 5581 5580 5578 5577 5576 5575 5573 5572 5571 5569 5568 5567 5566 5564 5563 5562 5561 5559 5558 5556 5555 5554 5552 5551 5550 5548 5547 5546 5545 5544 5543 5542 5541 5541 5540 5539 5539 5538 5538 5537 5537 5536
5628 5626 5625 5624 5623 5622 5621 5620 5619 5618 5617 5616 5615 5613 5612 5611 5610 5609 5608 5607 5606 5605 5604 5602 5601 5600 5599 5598 5597 5596 5595 5594 5593 5591 5590 5588 5586 5585 5584 5583 5581 5580 5579 5577 5576 5576 5574 5573 5572 5571 5569 5567 5566 5565 5563 5562 5561 5560 5558 5557 5556 5554 5553 5551 5550 5548 5547 5546 5544 5543 5542 5541 5539 5538 5537 5536 5536 5535 5534 5534 5533 5532 5532 5531 5531 5531
5625 5624 5623 5621 5620 5619 5618 5617 5616 5615 5614 5613 5612 5611 5610 5609 5607 5606 5605 5604 5603 5602 5600 5599 5598 5596 5595 5594 5593 5592 5591 5590 5589 5588 5586 5584 5583 5581 5580 5579 5577 5576 5575 5573 5571 5571 5570 5569 5567 5566 5564 5563 5561 5560 5558 5557 5556 5554 5553 5551 5550 5549 5547 5546 5544 5543 5541 5540 5539 5537 5536 5535 5534 5533 5532 5531 5530 5529 5529 5528 5527 5527 5526 5526 5525 5524
5622 5621 5620 5619 5617 5616 5615 5614 5613 5612 5611 5610 5609 5608 5607 5606 5605 5604 5602 5601 5600 5599 5597 5596 5595 5593 5592 5590 5589 5588 5587 5586 5585 5584 5582 5580 5579 5577 5576 5575 5573 5572 5571 5569 5567 5566 5565 5564 5563 5561 5559 5558 5556 5555 5553 5552 5551 5549 5547 5546 5545 5543 5542 5540 5539 5537 5536 5535 5533 5532 5531 5530 5529 5528 5527 5526 5525 5524 5523 5522 5522 5521 5521 5520 5519 5519
5620 5619 5617 5616 5615 5614 5612 5611 5610 5609 5608 5607 5606 5605 5604 5603 5602 5601 5599 5598 5596 5595 5594 5592 5591 5590 5588 5587 5586 5584 5583 5583 5581 5580 5578 5576 5574 5573 5572 5571 5569 5568 5566 5564 5562 5561 5560 5560 5559 5557 5555 5553 5551 5550 5548 5547 5545 5544 5542 5541 5539 5537 5536 5535 5533 5531 5530 5529 5528 5526 5525 5524 5523 5522 5521 5520 5519 5518 5518 5517 5516 5516 5515 5514 5514 5513
5617 5616 5615 5613 5612 5611 5610 5608 5607 5606 5605 5604 5603 5602 5601 5600 5598 5597 5596 5594 5593 5592 5591 5589 5588 5586 5585 5583 5582 5580 5579 5578 5577 5576 5574 5572 5570 5569 5568 5566 5565 5563 5562 5561 5558 5555 5554 5553 5553 5552 5551 5548 5546 5545 5543 5542 5540 5538 5537 5535 5533 5532 5531 5529 5527 5526 5524 5523 5522 5521 5520 5519 5518 5517 5516 5515 5514 5513 5512 5511 5511 5510 5509 5509 5508 5507
5615 5613 5612 5611 5609 5608 5607 5606 5604 5603 5602 5601 5600 5599 5597 5596 5595 5594 5592 5591 5590 5588 5587 5586 5584 5583 5581 5580 5578 5577 5575 5574 5573 5571 5570 5568 5566 5565 5564 5562 5560 5558 5557 5556 5554 5551 5549 5547 5546 5546 5546 5544 5541 5540 5538 5537 5535 5533 5531 5530 5528 5526 5525 5523 5522 5520 5519 5517 5516 5516 5515 5513 5512 5511 5511 5510 5509 5508 5507 5506 5505 5505 5504 5503 5502 5501
5611 5610 5609 5608 5606 5605 5604 5603 5601 5600 5599 5598 5596 5595 5594 5593 5591 5590 5589 5587 5586 5585 5583 5582 5581 5579 5577 5576 5575 5573 5572 5571 5569 5567 5566 5564 5562 5560 5559 5558 5556 5554 5552 5551 5550 5548 5545 5542 5541 5540 5539 5538 5536 5535 5533 5532 5530 5528 5526 5524 5522 5520 5519 5518 5516 5515 5513 5512 5511 5510 5509 5508 5507 5506 5506 5504 5503 5502 5501 5501 5500 5499 5498 5497 5496 5496
5608 5607 5606 5605 5603 5602 5601 5600 5598 5597 5596 5595 5593 5592 5591 5589 5588 5586 5585 5584 5582 5581 5579 5578 5576 5575 5573 5572 5571 5569 5568 5566 5565 5563 5561 5559 5557 5556 5554 5553 5551 5550 5548 5546 5545 5543 5541 5538 5536 5534 5532 5531 5530 5530 5528 5526 5525 5523 5521 5519 5517 5515 5513 5512 5511 5509 5508 5506 5506 5505 5504 5503 5502 5501 5501 5499 5498 5497 5496 5495 5494 5493 5493 5492 5491 5491
5605 5604 5602 5601 5600 5599 5597 5596 5595 5594 5592 5591 5590 5588 5587 5586 5584 5583 5581 5580 5578 5577 5576 5574 5573 5571 5570 5568 5566 5565 5563 5562 5561 5559 5557 5555 5553 5551 5550 5548 5547 5545 5543 5541 5540 5538 5535 5533 5531 5529 5527 5524 5523 5523 5522 5521 5519 5517 5516 5514 5512 5510 5508 5506 5505 5504 5502 5501 5501 5500 5499 5498 5497 5496 5496 5495 5493 5492 5491 5490 5489 5488 5487 5486 5486 5485
5602 5601 5599 5598 5597 5596 5594 5593 5592 5591 5589 5588 5586 5585 5584 5582 5581 5579 5578 5576 5575 5573 5571 5570 5568 5567 5566 5564 5562 5560 5559 5557 5556 5555 5553 5551 5549 5547 5545 5543 5542 5541 5539 5536 5535 5533 5531 5528 5526 5524 5522 5519 5517 5516 5515 5515 5513 5512 5510 5508 5506 5504 5502 5501 5500 5498 5497 5496 5495 5495 5494 5493 5492 5491 5491 5490 5489 5487 5486 5485 5484 5483 5482 5481 5481 5480
5599 5597 5596 5595 5593 5592 5591 5590 5588 5587 5586 5584 5583 5581 5580 5578 5577 5576 5574 5572 5571 5569 5567 5566 5564 5563 5561 5560 5558 5556 5554 5552 5551 5550 5548 5546 5545 5543 5541 5539 5537 5536 5534 5532 5530 5528 5526 5523 5521 5518 5516 5514 5512 5510 5508 5507 5506 5505 5504 5502 5501 5499 5497 5496 5494 5493 5492 5491 5490 5490 5489 5488 5488 5487 5486 5485 5484 5482 5481 5480 5479 5478 5477 5476 5475 5475
5596 5594 5593 5591 5590 5589 5587 5586 5585 5583 5582 5581 5579 5578 5576 5575 5573 5571 5570 5568 5567 5565 5563 5562 5560 5559 5557 5555 5554 5552 5550 5548 5546 5545 5543 5541 5540 5538 5536 5534 5532 5531 5529 5527 5525 5523 5521 5518 5516 5513 5511 5508 5506 5505 5502 5501 5499 5498 5497 5496 5494 5493 5491 5490 5489 5488 5487 5486 5486 5485 5484 5484 5483 5482 5481 5480 5479 5477 5476 5475 5474 5473 5472 5471 5470 5470
5592 5591 5590 5588 5587 5585 5584 5582 5581 5580 5578 5577 5576 5574 5572 5571 5569 5568 5566 5565 5563 5561 5559 5558 5556 5554 5553 5551 5549 5547 5546 5544 5542 5540 5538 5537 5535 5533 5531 5530 5527 5526 5524 5522 5521 5518 5516 5514 5511 5509 5506 5503 5501 5499 5497 5495 5493 5491 5490 5488 5487 5486 5486 5485 5483 5482 5482 5481 5481 5480 5480 5479 5478 5477 5476 5475 5474 5473 5471 5470 5469 5468 5467 5466 5466 5465
5589 5587 5586 5585 5583 5582 5580 5579 5577 5576 5575 5573 5571 5570 5569 5567 5566 5564 5562 5561 5559 5557 5555 5554 5552 5550 5548 5547 5545 5543 5541 5539 5537 5536 5534 5532 5530 5528 5527 5525 5523 5521 5519 5517 5515 5513 5511 5509 5507 5504 5502 5499 5496 5493 5491 5489 5487 5486 5484 5482 5481 5480 5479 5479 5478 5477 5477 5476 5476 5475 5475 5474 5473 5472 5471 5470 5469 5468 5466 5465 5464 5463 5462 5461 5461 5460
5585 5584 5583 5581 5580 5578 5577 5575 5574 5572 5571 5569 5568 5566 5565 5563 5561 5560 5558 5556 5555 5553 5551 5549 5547 5546 5544 5543 5541 5539 5537 5535 5533 5531 5529 5527 5526 5524 5522 5520 5518 5516 5514 5512 5510 5508 5506 5504 5502 5499 5497 5495 5491 5488 5485 5483 5481 5480 5478 5476 5475 5474 5473 5472 5472 5472 5471 5471 5471 5470 5470 5469 5468 5467 5466 5465 5464 5463 5461 5460 5459 5457 5457 5456 5456 5455
5582 5581 5579 5578 5576 5575 5573 5571 5570 5569 5567 5566 5564 5562 5561 5560 5558 5556 5554 5552 5551 5549 5547 5545 5543 5541 5540 5538 5537 5535 5533 5531 5529 5527 5525 5523 5521 5519 5517 5515 5513 5511 5509 5507 5505 5503 5501 5499 5497 5495 5492 5490 5486 5483 5480 5478 5476 5474 5473 5471 5470 5468 5467 5466 5466 5466 5466 5466 5466 5465 5465 5464 5463 5462 5461 5460 5459 5457 5456 5455 5453 5452 5451 5451 5450 5450
5579 5577 5576 5574 5573 5571 5570 5568 5566 5565 5564 5562 5561 5559 5557 5556 5554 5552 5550 5548 5546 5545 5543 5541 5539 5537 5536 5534 5532 5531 5529 5527 5525 5523 5521 5519 5517 5515 5513 5511 5508 5506 5504 5502 5500 5497 5495 5494 5492 5489 5487 5484 5481 5478 5476 5473 5471 5469 5468 5467 5465 5464 5462 5461 5461 5461 5461 5460 5460 5460 5460 5459 5458 5457 5456 5455 5453 5452 5451 5450 5448 5447 5446 5446 5445 5445
5575 5573 5572 5571 5569 5568 5566 5565 5563 5561 5560 5558 5556 5555 5553 5551 5550 5548 5546 5544 5542 5541 5538 5536 5535 5533 5531 5530 5528 5526 5524 5522 5521 5519 5517 5515 5513 5511 5508 5506 5504 5501 5500 5497 5495 5493 5490 5488 5486 5484 5481 5479 5476 5474 5471 5468 5466 5465 5463 5462 5461 5459 5458 5456 5455 5455 5455 5455 5455 5455 5455 5454 5453 5452 5451 5450 5448 5447 5446 5445 5443 5442 5442 5441 5441 5440
5571 5570 5568 5567 5566 5564 5563 5561 5560 5558 5556 5555 5553 5551 5549 5547 5546 5544 5542 5540 5538 5536 5534 5532 5531 5528 5526 5525 5523 5521 5519 5517 5516 5514 5512 5511 5508 5506 5504 5502 5499 5497 5495 5492 5490 5488 5486 5483 5481 5478 5476 5474 5471 5469 5466 5464 5462 5460 5459 5457 5456 5455 5453 5452 5451 5450 5450 5450 5450 5450 5450 5449 5448 5447 5446 5445 5444 5442 5441 5440 5439 5438 5437 5436 5436 5435
5568 5566 5565 5564 5562 5561 5559 5558 5556 5554 5552 5551 5549 5547 5545 5543 5541 5540 5538 5536 5534 5532 5530 5528 5526 5524 5522 5520 5518 5517 5515 5513 5511 5510 5508 5506 5504 5502 5500 5497 5495 5493 5490 5488 5486 5483 5481 5479 5476 5473 5471 5469 5466 5464 5462 5460 5458 5456 5454 5453 5451 5450 5449 5448 5447 5446 5446 5445 5445 5444 5444 5444 5443 5442 5441 5441 5439 5438 5437 5436 5435 5434 5433 5432 5431 5431
5564 5563 5561 5560 5559 5557 5556 5554 5552 5551 5549 5547 5545 5543 5541 5540 5537 5536 5534 5532 5530 5528 5526 5524 5522 5520 5518 5516 5514 5512 5510 5508 5506 5505 5503 5501 5499 5497 5495 5493 5491 5488 5486 5484 5481 5479 5476 5474 5471 5469 5466 5464 5461 5459 5457 5456 5454 5452 5450 5449 5447 5446 5445 5444 5442 5442 5441 5441 5440 5440 5439 5439 5438 5438 5437 5436 5435 5434 5432 5431 5431 5430 5429 5428 5427 5427
5561 5559 5558 5556 5555 5553 5552 5550 5548 5547 5545 5543 5541 5539 5537 5536 5534 5531 5530 5527 5526 5524 5521 5519 5517 5516 5513 5511 5510 5508 5506 5504 5502 5500 5498 5496 5494 5492 5490 5488 5486 5484 5482 5480 5477 5475 5472 5469 5466 5464 5461 5459 5457 5455 5453 5451 5449 5448 5446 5445 5443 5442 5441 5440 5438 5438 5437 5436 5436 5435 5435 5434 5433 5433 5433 5432 5431 5430 5429 5427 5426 5426 5425 5424 5423 5423
5557 5556 5554 5553 5551 5550 5548 5546 5545 5543 5541 5539 5537 5536 5533 5531 5530 5528 5526 5523 5521 5519 5517 5515 5513 5511 5509 5507 5506 5504 5502 5500 5498 5496 5494 5491 5489 5487 5485 5483 5481 5479 5477 5475 5473 5471 5468 5465 5462 5460 5457 5454 5452 5451 5449 5447 5445 5443 5442 5441 5439 5438 5437 5436 5435 5434 5433 5432 5431 5431 5430 5429 5429 5428 5428 5427 5426 5426 5425 5424 5422 5421 5421 5420 5420 5419
5554 5552 5551 5549 5547 5546 5544 5542 5541 5539 5537 5536 5534 5531 5530 5527 5526 5524 5521 5519 5517 5515 5513 5511 5509 5506 5504 5502 5501 5499 5497 5495 5493 5491 5489 5487 5485 5482 5481 5479 5477 5475 5473 5471 5469 5467 5464 5461 5459 5456 5453 5450 5448 5446 5445 5443 5441 5440 5438 5436 5435 5434 5433 5432 5431 5430 5429 5428 5427 5426 5426 5425 5424 5424 5424 5423 5422 5422 5421 5420 5419 5418 5417 5416 5416 5415
5550 5548 5547 5545 5544 5542 5540 5538 5537 5535 5533 5531 5530 5527 5526 5523 5521 5519 5517 5515 5513 5511 5509 5507 5505 5502 5500 5498 5496 5494 5493 5491 5488 5486 5484 5482 5480 5478 5476 5474 5472 5471 5468 5466 5464 5462 5460 5458 5455 5452 5449 5446 5444 5442 5441 5439 5437 5436 5434 5433 5432 5431 5430 5429 5427 5426 5425 5424 5424 5423 5422 5421 5420 5420 5420 5419 5419 5418 5417 5417 5416 5415 5413 5412 5412 5411